Deer Park, WA
on Monday, December 10, 2012

Monday
Previous Day Next Day
Daily Summary
 ActualAverageRecord
Temperature
Mean Temperature °F 26°F  
Max Temperature 30°F 32°F 52°F (2014)
Min Temperature 23°F 19°F 3°F (2013)
Degree Days
Heating Degree Days 38 39  
Month to date heating degree days 315 380  
Since 1 July heating degree days 2052 2383  
Cooling Degree Days 0 0  
Month to date cooling degree days 0 0  
Year to date cooling degree days 232 187  
Moisture
Dew Point 27°F   
Average Humidity 96    
Maximum Humidity 100    
Minimum Humidity 92    
Precipitation
Precipitation 0.00 in 0.09 in 0.23 in (2010)
Month to date precipitation 1.47 0.89  
Year to date precipitation 25.58 20.28  
Wind
Wind Speed 3 mph   
Max Wind Speed 12 mph   
Max Gust Speed 13 mph   
Visibility 8 miles   
Events     

Key: T is trace of precipitation, MM is missing value
Source: NWS Daily Summary
Time(PST)TemperatureDew PointHumidity Pressure Visibility Wind DirectionWind SpeedGust SpeedPrecipitationEvents Conditions
12:38 AM 28.4°F 26.6°F 93% 30.16 in 5.0 miles Calm Calm - N/A   Overcast
12:53 AM 27.0°F 27.0°F 100% 30.25 in 5.0 miles Calm Calm - N/A   Overcast
1:06 AM 28.4°F 26.6°F 93% 30.17 in 5.0 miles Calm Calm - N/A   Overcast
1:53 AM 27.0°F 27.0°F 100% 30.25 in 5.0 miles SW 3.5 mph - N/A   Overcast
2:03 AM 26.6°F 26.6°F 100% 30.17 in 5.0 miles WSW 4.6 mph - N/A   Overcast
2:53 AM 27.0°F 26.1°F 96% 30.26 in 6.0 miles WSW 3.5 mph - N/A   Overcast
4:29 AM 26.6°F 24.8°F 93% 30.18 in 10.0 miles Calm Calm - N/A   Overcast
4:53 AM 25.0°F 25.0°F 100% 30.26 in 7.0 miles South 4.6 mph - N/A   Overcast
5:53 AM 27.0°F 26.1°F 96% 30.27 in 8.0 miles SSW 5.8 mph - N/A   Overcast
6:53 AM 28.0°F 27.0°F 96% 30.29 in 10.0 miles SSW 6.9 mph - N/A   Overcast
7:32 AM 28.4°F 26.6°F 93% 30.21 in 10.0 miles South 8.1 mph - N/A   Overcast
7:53 AM 28.0°F 26.1°F 92% 30.30 in 10.0 miles SSW 6.9 mph - N/A   Overcast
8:53 AM 28.0°F 27.0°F 96% 30.29 in 10.0 miles South 6.9 mph - N/A   Overcast
9:53 AM 28.0°F 27.0°F 96% 30.29 in 10.0 miles SSW 4.6 mph - N/A   Overcast
10:15 AM 28.4°F 26.6°F 93% 30.22 in 10.0 miles SW 6.9 mph - N/A   Overcast
10:53 AM 28.9°F 27.0°F 92% 30.28 in 10.0 miles SSW 5.8 mph - N/A   Overcast
11:19 AM 28.4°F 26.6°F 93% 30.20 in 8.0 miles SSW 6.9 mph - N/A   Overcast
11:30 AM 28.4°F 26.6°F 93% 30.20 in 9.0 miles South 4.6 mph - N/A   Overcast
11:53 AM 28.9°F 27.0°F 92% 30.28 in 10.0 miles South 5.8 mph - N/A   Overcast
12:53 PM 28.9°F 26.1°F 89% 30.26 in 7.0 miles SSW 6.9 mph - N/A   Overcast
1:53 PM 28.9°F 27.0°F 92% 30.24 in 10.0 miles South 8.1 mph - N/A   Overcast
2:32 PM 28.4°F 26.6°F 93% 30.16 in 10.0 miles South 9.2 mph - N/A   Overcast
2:53 PM 28.9°F 27.0°F 92% 30.23 in 10.0 miles SSW 4.6 mph - N/A   Overcast
3:53 PM 30.0°F 28.0°F 92% 30.23 in 10.0 miles SSW 4.6 mph - N/A   Overcast
4:53 PM 30.0°F 28.0°F 92% 30.22 in 10.0 miles Calm Calm - N/A   Overcast
5:53 PM 28.9°F 28.0°F 96% 30.19 in 10.0 miles Calm Calm - N/A   Overcast
6:53 PM 28.9°F 28.0°F 96% 30.19 in 10.0 miles Calm Calm - N/A   Overcast
7:53 PM 28.9°F 28.0°F 96% 30.17 in 10.0 miles Calm Calm - N/A   Overcast
8:53 PM 30.0°F 28.0°F 92% 30.15 in 10.0 miles Calm Calm - N/A   Overcast
9:53 PM 30.0°F 28.0°F 92% 30.12 in 10.0 miles Calm Calm - N/A   Overcast
10:46 PM 30.2°F 28.4°F 93% 30.03 in 4.0 miles NNE 3.5 mph - N/A   Overcast
10:53 PM 30.0°F 28.0°F 92% 30.10 in 3.0 miles Calm Calm - N/A   Overcast
11:02 PM 30.2°F 28.4°F 93% 30.04 in 2.5 miles Calm Calm - N/A   Overcast
11:33 PM 30.2°F 28.4°F 93% 30.01 in 3.0 miles Calm Calm - N/A   Overcast
11:41 PM 30.2°F 28.4°F 93% 30.01 in 2.5 miles Calm Calm - N/A   Overcast
11:53 PM 30.0°F 28.9°F 96% 30.06 in 1.5 miles Calm Calm - N/A   Overcast
Moon Phase
Dec. 10 Dec. 13 Dec. 20 Dec. 28 Jan. 04
Sunrise:07:28 AM (PST) Moon Rise:04:09 AM (PST)12/10
Sunset:03:56 PM (PST) Moon Set:01:56 PM (PST)12/10

Copyright © 2014 The Weather Underground, Inc.